Location: Newark
(50.5333°N, 4.4333°E)
Time: 03:30:20
(UTC+00:00)

ISS - Visible Passes

Search period start: 18 October 2019 00:00
Search period end: 28 October 2019 00:00
Orbit: 411 x 421 km, 51.6° (Epoch: 17 October)

Date Brightness Start Highest point End Pass type
(mag) Time Alt. Az. Time Alt. Az. Time Alt. Az.
23 Oct -0.6 05:38:19 10° SSE 05:39:47 12° SE 05:41:16 10° ESE visible
25 Oct -1.5 05:36:09 10° SSW 05:38:59 25° SE 05:41:49 10° E visible
26 Oct -1.1 04:48:15 10° S 04:50:34 17° SE 04:52:53 10° E visible
27 Oct -0.8 04:00:59 10° SSE 04:02:13 12° SE 04:03:27 10° ESE visible
27 Oct -2.9 05:35:04 10° SW 05:38:20 48° SSE 05:41:36 10° E visible
